Regional Weather Roundup
Issued by NWS Goodland, KS

Home | Current Version | Previous Version | Graphics & Text | Print | Product List | Glossary On
Versions: 1 2 3 4 5 6 7 8 9 10 11 12 13 14 15 16 17 18 19 20 21 22 23 24 25 26 27 28 29 30 31 32 33 34 35 36 37 38 39 40 41 42 43 44 45 46 47 48 49 50
000
ASUS43 KGLD 241859
RWRGLD

GOODLAND FORECAST AREA HOURLY WEATHER ROUNDUP
NATIONAL WEATHER SERVICE GOODLAND KS
1200 PM MST WED DEC 24 2014

...OFFICIAL OBSERVATIONS...

CITY           SKY/WX    TMP DP  RH WIND       PRES   REMARKS
GOODLAND KS    SUNNY     37  17  44 SW18      29.81F
HILL CITY KS   SUNNY     40  20  44 W9        29.86F
IMPERIAL NEB   SUNNY     37  18  46 SW13      29.76F
MCCOOK NEB     SUNNY     37  18  46 SW7       29.80F
AKRON CO       SUNNY     38  17  42 SW12      29.74F
BURLINGTON CO  SUNNY     35  17  47 SW15G24   29.81F
LIMON CO       SUNNY     40  12  32 S12       29.77F
$$

...UNOFFICIAL OBSERVATIONS...

CITY           SKY/WX    TMP DP  RH WIND       PRES   REMARKS
COLBY KS       SUNNY     37  25  60 SW14      29.82F
GOVE KS          N/A     40  32  73 MISG        N/A
NORTON KS      SUNNY     37  19  48 SW10      29.83F
SHARON SPRINGS   N/A     41  25  53 W12         N/A
TRIBUNE KS     SUNNY     43  19  39 SW16      29.88F
KIT CARSON CO    N/A     37  13  36 MISG        N/A
YUMA CO          N/A     39  19  44 SW13        N/A
$$



USA.gov is the U.S. government's official web portal to all federal, state and local government web resources and services.